TimeCDT,TemperatureF,Dew PointF,Humidity,Sea Level PressureIn,VisibilityMPH,Wind Direction,Wind SpeedMPH,Gust SpeedMPH,PrecipitationIn,Events,Conditions,WindDirDegrees,DateUTC
12:52 AM,51.1,50.0,96,30.07,-9999.0,NNW,5.8,-,N/A,,Unknown,340,2013-08-08 05:52:00
1:52 AM,50.0,48.0,93,30.08,-9999.0,NNW,6.9,-,N/A,,Unknown,340,2013-08-08 06:52:00
2:52 AM,50.0,48.0,93,30.08,-9999.0,North,3.5,-,N/A,,Unknown,360,2013-08-08 07:52:00
3:52 AM,48.9,46.9,93,30.07,-9999.0,North,4.6,-,N/A,,Unknown,360,2013-08-08 08:52:00
4:52 AM,46.0,45.0,96,30.07,-9999.0,NNW,5.8,-,N/A,,Unknown,340,2013-08-08 09:52:00
5:52 AM,46.0,45.0,96,30.07,-9999.0,NNW,8.1,-,N/A,,Unknown,340,2013-08-08 10:52:00
6:52 AM,46.0,45.0,96,30.09,-9999.0,North,6.9,-,N/A,,Unknown,350,2013-08-08 11:52:00
7:52 AM,51.1,48.0,89,30.09,-9999.0,NNW,4.6,-,N/A,,Unknown,340,2013-08-08 12:52:00
8:52 AM,57.9,52.0,81,30.09,-9999.0,North,3.5,-,N/A,,Unknown,350,2013-08-08 13:52:00
9:52 AM,62.1,48.0,60,30.10,-9999.0,Variable,3.5,-,N/A,,Unknown,0,2013-08-08 14:52:00
10:52 AM,64.9,48.0,54,30.11,-9999.0,Variable,4.6,-,N/A,,Unknown,0,2013-08-08 15:52:00
11:52 AM,68.0,48.9,50,30.10,-9999.0,NNW,4.6,-,N/A,,Unknown,330,2013-08-08 16:52:00
12:52 PM,69.1,48.9,49,30.11,-9999.0,Variable,6.9,-,N/A,,Unknown,0,2013-08-08 17:52:00
1:52 PM,71.1,50.0,47,30.10,-9999.0,NNW,11.5,-,N/A,,Unknown,340,2013-08-08 18:52:00
2:52 PM,71.1,51.1,49,30.09,-9999.0,NNW,10.4,-,N/A,,Unknown,340,2013-08-08 19:52:00
3:52 PM,72.0,52.0,49,30.09,-9999.0,NNW,8.1,-,N/A,,Unknown,330,2013-08-08 20:52:00
4:52 PM,71.1,50.0,47,30.08,-9999.0,NW,9.2,17.3,N/A,,Unknown,310,2013-08-08 21:52:00
5:52 PM,72.0,51.1,48,30.08,-9999.0,North,10.4,-,N/A,,Unknown,360,2013-08-08 22:52:00
6:52 PM,71.1,53.1,53,30.08,-9999.0,NNW,10.4,-,N/A,,Unknown,340,2013-08-08 23:52:00
7:52 PM,68.0,53.1,59,30.07,-9999.0,North,4.6,-,N/A,,Unknown,360,2013-08-09 00:52:00
8:52 PM,63.0,55.0,75,30.08,-9999.0,North,3.5,-,N/A,,Unknown,360,2013-08-09 01:52:00
9:52 PM,57.0,53.1,87,30.11,-9999.0,NNE,3.5,-,N/A,,Unknown,20,2013-08-09 02:52:00
10:52 PM,54.0,51.1,90,30.14,-9999.0,Calm,Calm,-,N/A,,Unknown,0,2013-08-09 03:52:00
11:52 PM,53.1,50.0,89,30.14,-9999.0,NNW,4.6,-,N/A,,Unknown,340,2013-08-09 04:52:00